Year,Month,Day,Hour,Minute,Value (Times are PST for temperature in C)
2017,07,20,11,17,15.90
2017,07,20,11,18,15.90
2017,07,20,11,19,15.90
2017,07,20,11,20,16.00
2017,07,20,11,21,16.00
2017,07,20,11,22,16.10
2017,07,20,11,23,16.10
2017,07,20,11,24,16.10
2017,07,20,11,25,16.10
2017,07,20,11,26,16.20
2017,07,20,11,27,16.20
2017,07,20,11,28,16.30
2017,07,20,11,29,16.30
2017,07,20,11,30,16.30
2017,07,20,11,31,16.30
2017,07,20,11,32,16.30
2017,07,20,11,33,16.30
2017,07,20,11,34,16.30
2017,07,20,11,35,16.40
2017,07,20,11,36,16.40
2017,07,20,11,37,16.40
2017,07,20,11,38,16.40
2017,07,20,11,39,16.30
2017,07,20,11,40,16.30
2017,07,20,11,41,16.30
2017,07,20,11,42,16.30
2017,07,20,11,43,16.30
2017,07,20,11,44,16.30
2017,07,20,11,45,16.20
2017,07,20,11,46,16.20
2017,07,20,11,47,16.10
2017,07,20,11,48,16.10
2017,07,20,11,49,16.00
2017,07,20,11,50,16.00
2017,07,20,11,51,15.90
2017,07,20,11,52,15.90
2017,07,20,11,53,15.90
2017,07,20,11,54,15.90
2017,07,20,11,55,15.80
2017,07,20,11,56,15.80
2017,07,20,11,57,15.80
2017,07,20,11,58,15.80
2017,07,20,11,59,15.80
2017,07,20,12,00,15.80
2017,07,20,12,01,15.80
2017,07,20,12,02,15.80
2017,07,20,12,03,15.80
2017,07,20,12,04,15.80
2017,07,20,12,05,15.80
2017,07,20,12,06,15.80
2017,07,20,12,07,15.80
2017,07,20,12,08,15.80
2017,07,20,12,09,15.80
2017,07,20,12,10,15.90
2017,07,20,12,11,15.90
2017,07,20,12,12,15.90
2017,07,20,12,13,16.00
2017,07,20,12,14,16.00
2017,07,20,12,15,16.10
2017,07,20,12,16,16.20
2017,07,20,12,17,16.20
2017,07,20,12,18,16.20
2017,07,20,12,19,16.20
2017,07,20,12,20,16.30
2017,07,20,12,21,16.30
2017,07,20,12,22,16.40
2017,07,20,12,23,16.40
2017,07,20,12,24,16.40
2017,07,20,12,25,16.50
2017,07,20,12,26,16.50
2017,07,20,12,27,16.60
2017,07,20,12,28,16.60
2017,07,20,12,29,16.60
2017,07,20,12,30,16.60
2017,07,20,12,31,16.60
2017,07,20,12,32,16.60
2017,07,20,12,33,16.70
2017,07,20,12,34,16.70
2017,07,20,12,35,16.60
2017,07,20,12,36,16.60
2017,07,20,12,37,16.60
2017,07,20,12,38,16.60
2017,07,20,12,39,16.60
2017,07,20,12,40,16.60
2017,07,20,12,41,16.60
2017,07,20,12,42,16.60
2017,07,20,12,43,16.60
2017,07,20,12,44,16.60
2017,07,20,12,45,16.60
2017,07,20,12,46,16.60
2017,07,20,12,47,16.60
2017,07,20,12,48,16.60
2017,07,20,12,49,16.60
2017,07,20,12,50,16.70
2017,07,20,12,51,16.70
2017,07,20,12,52,16.80
2017,07,20,12,53,16.80
2017,07,20,12,54,16.80
2017,07,20,12,55,16.80
2017,07,20,12,56,16.80
2017,07,20,12,57,16.80
2017,07,20,12,58,16.80
2017,07,20,12,59,16.80
2017,07,20,13,00,16.80
2017,07,20,13,01,16.80
2017,07,20,13,02,16.90
2017,07,20,13,03,17.00
2017,07,20,13,04,17.10
2017,07,20,13,05,17.10
2017,07,20,13,06,17.00
2017,07,20,13,07,17.00
2017,07,20,13,08,16.90
2017,07,20,13,09,16.90
2017,07,20,13,10,17.00
2017,07,20,13,11,17.00
2017,07,20,13,12,17.00
2017,07,20,13,13,17.00
2017,07,20,13,14,17.00
2017,07,20,13,15,16.90
2017,07,20,13,16,17.00
2017,07,20,13,17,17.00
2017,07,20,13,18,17.00
2017,07,20,13,19,17.00
2017,07,20,13,20,17.00
2017,07,20,13,21,17.00
2017,07,20,13,22,17.00
2017,07,20,13,23,17.00
2017,07,20,13,24,17.00
2017,07,20,13,25,17.10
2017,07,20,13,26,17.10
2017,07,20,13,27,17.10
2017,07,20,13,28,17.10
2017,07,20,13,29,17.10
2017,07,20,13,30,17.10
2017,07,20,13,31,17.10
2017,07,20,13,32,17.10
2017,07,20,13,33,17.10
2017,07,20,13,34,17.10
2017,07,20,13,35,17.20
2017,07,20,13,36,17.30
2017,07,20,13,37,17.40
2017,07,20,13,38,17.40
2017,07,20,13,39,17.50
2017,07,20,13,40,17.50
2017,07,20,13,41,17.50
2017,07,20,13,42,17.50
2017,07,20,13,43,17.50
2017,07,20,13,44,17.50
2017,07,20,13,45,17.50
2017,07,20,13,46,17.40
2017,07,20,13,47,17.40
2017,07,20,13,48,17.30
2017,07,20,13,49,17.30
2017,07,20,13,50,17.20
2017,07,20,13,51,17.20
2017,07,20,13,52,17.10
2017,07,20,13,53,17.10
2017,07,20,13,54,17.10
2017,07,20,13,55,17.20
2017,07,20,13,56,17.30
2017,07,20,13,57,17.40
2017,07,20,13,58,17.50
2017,07,20,13,59,17.60
2017,07,20,14,00,17.70
2017,07,20,14,01,17.70
2017,07,20,14,02,17.70
2017,07,20,14,03,17.70
2017,07,20,14,04,17.70
2017,07,20,14,05,17.70
2017,07,20,14,06,17.70
2017,07,20,14,07,17.70
2017,07,20,14,08,17.70
2017,07,20,14,09,17.70
2017,07,20,14,10,17.70
2017,07,20,14,11,17.80
2017,07,20,14,12,17.80
2017,07,20,14,13,17.90
2017,07,20,14,14,17.90
2017,07,20,14,15,18.00
2017,07,20,14,16,18.10
2017,07,20,14,17,18.00
2017,07,20,14,18,18.00
2017,07,20,14,19,17.90
2017,07,20,14,20,17.90
2017,07,20,14,21,17.80
2017,07,20,14,22,17.80
2017,07,20,14,23,17.80
2017,07,20,14,24,17.80
2017,07,20,14,25,17.70
2017,07,20,14,26,17.70
2017,07,20,14,27,17.80
2017,07,20,14,28,17.80
2017,07,20,14,29,17.90
2017,07,20,14,30,17.90
2017,07,20,14,31,18.00
2017,07,20,14,32,18.00
2017,07,20,14,33,17.90
2017,07,20,14,34,17.90
2017,07,20,14,35,18.00
2017,07,20,14,36,18.00
2017,07,20,14,37,18.00
2017,07,20,14,38,18.00
2017,07,20,14,39,18.00
2017,07,20,14,40,18.00
2017,07,20,14,41,18.00
2017,07,20,14,42,18.00
2017,07,20,14,43,17.90
2017,07,20,14,44,17.90
2017,07,20,14,45,17.90
2017,07,20,14,46,17.90
2017,07,20,14,47,18.00
2017,07,20,14,48,18.10
2017,07,20,14,49,18.20
2017,07,20,14,50,18.20
2017,07,20,14,51,18.10
2017,07,20,14,52,18.10
2017,07,20,14,53,18.10
2017,07,20,14,54,18.10
2017,07,20,14,55,18.00
2017,07,20,14,56,17.90
2017,07,20,14,57,17.90
2017,07,20,14,58,17.80
2017,07,20,14,59,17.80
2017,07,20,15,00,17.80
2017,07,20,15,01,17.80
2017,07,20,15,02,17.80
2017,07,20,15,03,17.80
2017,07,20,15,04,17.70
2017,07,20,15,05,17.70
2017,07,20,15,06,17.70
2017,07,20,15,07,17.70
2017,07,20,15,08,17.80
2017,07,20,15,09,17.80
2017,07,20,15,10,17.80
2017,07,20,15,11,17.90
2017,07,20,15,12,17.90
2017,07,20,15,13,17.90
2017,07,20,15,14,18.00
2017,07,20,15,15,18.00
2017,07,20,15,16,18.00
2017,07,20,15,17,18.00
2017,07,20,15,18,17.90
2017,07,20,15,19,17.90
2017,07,20,15,20,17.80
2017,07,20,15,21,17.70
2017,07,20,15,22,17.70
2017,07,20,15,23,17.70
2017,07,20,15,24,17.70
2017,07,20,15,25,17.70
2017,07,20,15,26,17.70
2017,07,20,15,27,17.70
2017,07,20,15,28,17.70
2017,07,20,15,29,17.70
2017,07,20,15,30,17.70
2017,07,20,15,31,17.70
2017,07,20,15,32,17.70
2017,07,20,15,33,17.70
2017,07,20,15,34,17.70
2017,07,20,15,35,17.80
2017,07,20,15,36,17.80
2017,07,20,15,37,17.90
2017,07,20,15,38,18.00
2017,07,20,15,39,18.10
2017,07,20,15,40,18.10
2017,07,20,15,41,18.00
2017,07,20,15,42,18.00
2017,07,20,15,43,18.10
2017,07,20,15,44,18.00
2017,07,20,15,45,18.00
2017,07,20,15,46,18.00
2017,07,20,15,47,17.90
2017,07,20,15,48,17.80
2017,07,20,15,49,17.80
2017,07,20,15,50,17.70
2017,07,20,15,51,17.80
2017,07,20,15,52,17.80
2017,07,20,15,53,17.80
2017,07,20,15,54,17.80
2017,07,20,15,55,17.80
2017,07,20,15,56,17.80
2017,07,20,15,57,17.80
2017,07,20,15,58,17.80
2017,07,20,15,59,17.90
2017,07,20,16,00,17.90
2017,07,20,16,01,17.90
2017,07,20,16,02,18.00
2017,07,20,16,03,18.00
2017,07,20,16,04,17.90
2017,07,20,16,05,18.00
2017,07,20,16,06,18.00
2017,07,20,16,07,18.10
2017,07,20,16,08,18.20
2017,07,20,16,09,18.30
2017,07,20,16,10,18.40
2017,07,20,16,11,18.60
2017,07,20,16,12,18.70
2017,07,20,16,13,18.70
2017,07,20,16,14,18.70
2017,07,20,16,15,18.60
2017,07,20,16,16,18.50
2017,07,20,16,17,18.50
2017,07,20,16,18,18.40
2017,07,20,16,19,18.40
2017,07,20,16,20,18.30
2017,07,20,16,21,18.40
2017,07,20,16,22,18.40
2017,07,20,16,23,18.50
2017,07,20,16,24,18.50
2017,07,20,16,25,18.50
2017,07,20,16,26,18.40
2017,07,20,16,27,18.40
2017,07,20,16,28,18.40
2017,07,20,16,29,18.30
2017,07,20,16,30,18.20
2017,07,20,16,31,18.20
2017,07,20,16,32,18.20
2017,07,20,16,33,18.20
2017,07,20,16,34,18.20
2017,07,20,16,35,18.20
2017,07,20,16,36,18.10
2017,07,20,16,37,17.90
2017,07,20,16,38,17.70
2017,07,20,16,39,17.50
2017,07,20,16,40,17.60
2017,07,20,16,41,17.60
2017,07,20,16,42,17.60
2017,07,20,16,43,17.70
2017,07,20,16,44,17.80
2017,07,20,16,45,17.80
2017,07,20,16,46,17.90
2017,07,20,16,47,18.00
2017,07,20,16,48,18.00
2017,07,20,16,49,18.10
2017,07,20,16,50,18.10
2017,07,20,16,51,18.20
2017,07,20,16,52,18.30
2017,07,20,16,53,18.30
2017,07,20,16,54,18.30
2017,07,20,16,55,18.30
2017,07,20,16,56,18.30
2017,07,20,16,57,18.30
2017,07,20,16,58,18.20
2017,07,20,16,59,18.20
2017,07,20,17,00,18.10
2017,07,20,17,01,18.00
2017,07,20,17,02,17.90
2017,07,20,17,03,17.80
2017,07,20,17,04,17.80
2017,07,20,17,05,17.70
2017,07,20,17,06,17.70
2017,07,20,17,07,17.70
2017,07,20,17,08,17.60
2017,07,20,17,09,17.50
2017,07,20,17,10,17.40
2017,07,20,17,11,17.40
2017,07,20,17,12,17.40
2017,07,20,17,13,17.40
2017,07,20,17,14,17.30
2017,07,20,17,15,17.30
2017,07,20,17,16,17.30
2017,07,20,17,17,17.30
2017,07,20,17,18,17.30
2017,07,20,17,19,17.40
2017,07,20,17,20,17.40
2017,07,20,17,21,17.40
2017,07,20,17,22,17.40
2017,07,20,17,23,17.40
2017,07,20,17,24,17.40
2017,07,20,17,25,17.40
2017,07,20,17,26,17.40
2017,07,20,17,27,17.50
2017,07,20,17,28,17.60
2017,07,20,17,29,17.60
2017,07,20,17,30,17.60
2017,07,20,17,31,17.60
2017,07,20,17,32,17.60
2017,07,20,17,33,17.60
2017,07,20,17,34,17.50
2017,07,20,17,35,17.40
2017,07,20,17,36,17.40
2017,07,20,17,37,17.40
2017,07,20,17,38,17.40
2017,07,20,17,39,17.40
2017,07,20,17,40,17.30
2017,07,20,17,41,17.30
2017,07,20,17,42,17.30
2017,07,20,17,43,17.30
2017,07,20,17,44,17.30
2017,07,20,17,45,17.30
2017,07,20,17,46,17.30
2017,07,20,17,47,17.30
2017,07,20,17,48,17.30
2017,07,20,17,49,17.30
2017,07,20,17,50,17.30
2017,07,20,17,51,17.30
2017,07,20,17,52,17.30
2017,07,20,17,53,17.30
2017,07,20,17,54,17.30
2017,07,20,17,55,17.30
2017,07,20,17,56,17.30
2017,07,20,17,57,17.20
2017,07,20,17,58,17.20
2017,07,20,17,59,17.20
2017,07,20,18,00,17.20
2017,07,20,18,01,17.20
2017,07,20,18,02,17.20
2017,07,20,18,03,17.20
2017,07,20,18,04,17.20
2017,07,20,18,05,17.20
2017,07,20,18,06,17.20
2017,07,20,18,07,17.10
2017,07,20,18,08,17.10
2017,07,20,18,09,17.10
2017,07,20,18,10,17.10
2017,07,20,18,11,17.10
2017,07,20,18,12,17.10
2017,07,20,18,13,17.20
2017,07,20,18,14,17.20
2017,07,20,18,15,17.20
2017,07,20,18,16,17.20
2017,07,20,18,17,17.20
2017,07,20,18,18,17.20
2017,07,20,18,19,17.20
2017,07,20,18,20,17.20
2017,07,20,18,21,17.20
2017,07,20,18,22,17.20
2017,07,20,18,23,17.20
2017,07,20,18,24,17.20
2017,07,20,18,25,17.20
2017,07,20,18,26,17.20
2017,07,20,18,27,17.30
2017,07,20,18,28,17.30
2017,07,20,18,29,17.30
2017,07,20,18,30,17.30
2017,07,20,18,31,17.40
2017,07,20,18,32,17.40
2017,07,20,18,33,17.40
2017,07,20,18,34,17.40
2017,07,20,18,35,17.40
2017,07,20,18,36,17.40
2017,07,20,18,37,17.30
2017,07,20,18,38,17.30
2017,07,20,18,39,17.20
2017,07,20,18,40,17.20
2017,07,20,18,41,17.20
2017,07,20,18,42,17.20
2017,07,20,18,43,17.20
2017,07,20,18,44,17.20
2017,07,20,18,45,17.20
2017,07,20,18,46,17.20
2017,07,20,18,47,17.30
2017,07,20,18,48,17.30
2017,07,20,18,49,17.30
2017,07,20,18,50,17.20
2017,07,20,18,51,17.10
2017,07,20,18,52,17.10
2017,07,20,18,53,17.10
2017,07,20,18,54,17.10
2017,07,20,18,55,17.20
2017,07,20,18,56,17.20
2017,07,20,18,57,17.30
2017,07,20,18,58,17.30
2017,07,20,18,59,17.30
2017,07,20,19,00,17.30
2017,07,20,19,01,17.30
2017,07,20,19,02,17.30
2017,07,20,19,03,17.20
2017,07,20,19,04,17.20
2017,07,20,19,05,17.20
2017,07,20,19,06,17.10
2017,07,20,19,07,17.10
2017,07,20,19,08,17.10
2017,07,20,19,09,17.10
2017,07,20,19,10,17.10
2017,07,20,19,11,17.10
2017,07,20,19,12,17.10
2017,07,20,19,13,17.10
2017,07,20,19,14,17.10
2017,07,20,19,15,17.10
2017,07,20,19,16,17.10
2017,07,20,19,17,17.10
2017,07,20,19,18,17.20
2017,07,20,19,19,17.20
2017,07,20,19,20,17.20
2017,07,20,19,21,17.30
2017,07,20,19,22,17.30
2017,07,20,19,23,17.30
2017,07,20,19,24,17.30
2017,07,20,19,25,17.30
2017,07,20,19,26,17.30
2017,07,20,19,27,17.30
2017,07,20,19,28,17.20
2017,07,20,19,29,17.20
2017,07,20,19,30,17.20
2017,07,20,19,31,17.20
2017,07,20,19,32,17.20
2017,07,20,19,33,17.10
2017,07,20,19,34,17.10
2017,07,20,19,35,17.00
2017,07,20,19,36,17.10
2017,07,20,19,37,17.10
2017,07,20,19,38,17.10
2017,07,20,19,39,17.10
2017,07,20,19,40,17.10
2017,07,20,19,41,17.20
2017,07,20,19,42,17.20
2017,07,20,19,43,17.20
2017,07,20,19,44,17.20
2017,07,20,19,45,17.20
2017,07,20,19,46,17.20
2017,07,20,19,47,17.10
2017,07,20,19,48,17.10
2017,07,20,19,49,17.10
2017,07,20,19,50,17.10
2017,07,20,19,51,17.10
2017,07,20,19,52,17.00
2017,07,20,19,53,17.00
2017,07,20,19,54,16.90
2017,07,20,19,55,16.90
2017,07,20,19,56,16.90
2017,07,20,19,57,16.90
2017,07,20,19,58,16.80
2017,07,20,19,59,16.80
2017,07,20,20,00,16.80
2017,07,20,20,01,16.80
2017,07,20,20,02,16.80
2017,07,20,20,03,16.90
2017,07,20,20,04,16.90
2017,07,20,20,05,16.80
2017,07,20,20,06,16.80
2017,07,20,20,07,16.80
2017,07,20,20,08,16.80
2017,07,20,20,09,16.80
2017,07,20,20,10,16.80
2017,07,20,20,11,16.80
2017,07,20,20,12,16.80
2017,07,20,20,13,16.80
2017,07,20,20,14,16.80
2017,07,20,20,15,16.80
2017,07,20,20,16,16.80
2017,07,20,20,17,16.80
2017,07,20,20,18,16.90
2017,07,20,20,19,16.90
2017,07,20,20,20,16.90
2017,07,20,20,21,16.90
2017,07,20,20,22,16.90
2017,07,20,20,23,16.90
2017,07,20,20,24,16.90
2017,07,20,20,25,16.90
2017,07,20,20,26,16.90
2017,07,20,20,27,16.80
2017,07,20,20,28,16.80
2017,07,20,20,29,16.70
2017,07,20,20,30,16.70
2017,07,20,20,31,16.70
2017,07,20,20,32,16.70
2017,07,20,20,33,16.60
2017,07,20,20,34,16.60
2017,07,20,20,35,16.60
2017,07,20,20,36,16.50
2017,07,20,20,37,16.50
2017,07,20,20,38,16.40
2017,07,20,20,39,16.40
2017,07,20,20,40,16.40
2017,07,20,20,41,16.40
2017,07,20,20,42,16.40
2017,07,20,20,43,16.40
2017,07,20,20,44,16.40
2017,07,20,20,45,16.40
2017,07,20,20,46,16.40
2017,07,20,20,47,16.40
2017,07,20,20,48,16.40
2017,07,20,20,49,16.40
2017,07,20,20,50,16.40
2017,07,20,20,51,16.40
2017,07,20,20,52,16.40
2017,07,20,20,53,16.40
2017,07,20,20,54,16.40
2017,07,20,20,55,16.40
2017,07,20,20,56,16.30
2017,07,20,20,57,16.30
2017,07,20,20,58,16.30
2017,07,20,20,59,16.30
2017,07,20,21,00,16.30
2017,07,20,21,01,16.20
2017,07,20,21,02,16.20
2017,07,20,21,03,16.20
2017,07,20,21,04,16.10
2017,07,20,21,05,16.10
2017,07,20,21,06,16.00
2017,07,20,21,07,15.90
2017,07,20,21,08,15.90
2017,07,20,21,09,15.90
2017,07,20,21,10,15.90
2017,07,20,21,11,15.90
2017,07,20,21,12,15.90
2017,07,20,21,13,15.90
2017,07,20,21,14,15.90
2017,07,20,21,15,15.90
2017,07,20,21,16,15.90
2017,07,20,21,17,15.90
